Regional Weather Roundup
Issued by NWS Cleveland, OH

Home | Current Version | Previous Version | Graphics & Text | Print | Product List | Glossary On
Versions: 1 2 3 4 5 6 7 8 9 10 11 12 13 14 15 16 17 18 19 20 21 22 23 24 25 26 27 28 29 30 31 32 33 34 35 36 37 38 39 40 41 42 43 44 45 46 47 48 49 50
242
ASUS41 KCLE 070312
RWRCLE
OHIO REGIONAL WEATHER ROUNDUP
NATIONAL WEATHER SERVICE WILMINGTON, OH
1000 PM EST SAT FEB 06 2016

NOTE: "FAIR" INDICATES FEW OR NO CLOUDS BELOW 12,000 FEET WITH NO
SIGNIFICANT WEATHER AND/OR OBSTRUCTIONS TO VISIBILITY.

OHZ001>008-015>018-024>027-034-035-043-044-070400-
   NORTHWEST OHIO

CITY           SKY/WX    TMP DP  RH WIND       PRES   REMARKS
DEFIANCE       FAIR      30  23  75 CALM      30.18F
FINDLAY        FAIR      30  22  72 S7        30.19F WCI  23
TOLEDO EXPRESS FAIR      26  21  81 CALM      30.18F
TOLEDO EXEC    FAIR      30  22  72 SW7       30.19F WCI  23
LIMA           FAIR      33  24  69 S8        30.18F WCI  26
$$

OHZ009>014-019>023-028>033-038-089-070400-
   NORTHEAST OHIO

CITY           SKY/WX    TMP DP  RH WIND       PRES   REMARKS
CLE-HOPKINS    FAIR      31  18  58 SW5       30.22F WCI  26
CLE-LAKEFRONT  FAIR      34  20  56 SW10      30.19F WCI  26
CUY CO. ARPT   PTCLDY    32  21  64 SW8       30.20S WCI  25
LORAIN-ELYRIA  FAIR      30  20  66 SW3       30.20F
ASHTABULA      MOCLDY    28  24  85 CALM      30.19F
AKRON-CANTON   FAIR      28  16  60 SW7       30.19F WCI  21
WOOSTER        FAIR      30  18  60 SW7       30.20S WCI  23
MANSFIELD      FAIR      28  18  66 SW7       30.18F WCI  21
YOUNGSTOWN     FAIR      31  16  54 S6        30.18F WCI  25
$$

OHZ042-051>053-060>062-070>072-077>081-070400-
  SOUTHWEST OHIO

CITY           SKY/WX    TMP DP  RH WIND       PRES   REMARKS
CINC-COVINGTON FAIR      31  25  78 S6        30.23F WCI  25
CINC-LUNKEN    FAIR      30  25  81 CALM      30.26F
HAMILTON       FAIR      28  24  85 CALM      30.24F
DAYTON         FAIR      33  23  66 S7        30.21F WCI  27
WRIGHT-PAT AFB FAIR      29  21  71 CALM      30.21F
DAYTON GENERAL FAIR      33  21  61 S6        30.21F WCI  28
WILMINGTON     FAIR      30  23  75 S5        30.22F WCI  25
$$

OHZ036-037-039>041-045>050-054>059-063>069-073>076-082>088-070400-
  CENTRAL AND SOUTHEAST OHIO

CITY           SKY/WX    TMP DP  RH WIND       PRES   REMARKS
COLUMBUS       FAIR      31  17  56 CALM      30.22F
OSU AIRPORT    FAIR      32  20  61 S5        30.22S WCI  27
BOLTON FIELD   FAIR      29  22  75 SW3       30.22F
RICKENBACK AFB FAIR      31  22  71 S3        30.23S
NEWARK         FAIR      27  20  75 CALM      30.22F
MARION         FAIR      29  18  63 SW5       30.20F WCI  24
LANCASTER      FAIR      27  21  78 CALM      30.23F
ZANESVILLE     FAIR      31  15  52 CALM      30.23F
NEW PHILLY     FAIR      29  18  63 E5        30.22F WCI  24
$$




USA.gov is the U.S. government's official web portal to all federal, state and local government web resources and services.